Sherman Airfield (FLV)
Ft Leavenworth, KS
Field Elevation: 772
Lat: 39°22.10N  Long: 94°54.89W
CTAF/Unicom Freq: 126.2000
   
    
Weather Advisories
10/2/2014 02:20 Z
Altimeter 29.84" Hg
Wind 170° @ 12 KT
Gusts 29 KT
Visibility 10 SM
Temperature 17° C (63° F)
Dewpoint 17° C (63° F)
Relative Humidity 100%
Density Altitude --
Condensation Altitude --
  Wind and Runways
Indicated Runway = 16
History
 
 
More Info
All DigiWx sites map
Weather Radar
NOAA Forecast
 
Airport IQ 5010
(K68) Garnett Municipal
(GRE) Greenville
 
about DigiWx
 
FAA Disclaimer: The data displayed is for advisory purposes only and is not to be used for flight planning or operations. For official data, please call (not available) to hear the current automated AWOS voice message.
  METAR FLV 020220Z AUTO 17012G29KT 10SM 17/17 A2984